This is the latest recevied weather packets stored in our database for station/object BV3BA-13. If no packets are shown the sender has not sent any weather packets the latest 1 day(s).
| Time | Temp. | Humidity | Pressure | Rain* | Wind** | Luminosity | Snow |
|---|---|---|---|---|---|---|---|
| 1777965423 | 21.11° C | 93% | 1009.9 hPa | 0 mm | 0.89 m/s, 60° | - | - |
| 1777964824 | 21.11° C | 93% | 1010.1 hPa | 0 mm | 0.45 m/s, 90° | - | - |
| 1777964224 | 21.11° C | 91% | 1010.1 hPa | 0 mm | 1.34 m/s, 90° | - | - |
| 1777963624 | 21.11° C | 91% | 1010.2 hPa | 0 mm | 0.89 m/s, 80° | - | - |
| 1777963024 | 21.11° C | 92% | 1010.4 hPa | 0 mm | 0.89 m/s, 80° | - | - |
| 1777962423 | 21.11° C | 92% | 1010.4 hPa | 0 mm | 0.89 m/s, 90° | - | - |
| 1777961824 | 21.11° C | 92% | 1010.6 hPa | 0 mm | 0.89 m/s, 100° | - | - |
| 1777961224 | 21.11° C | 93% | 1010.7 hPa | 0 mm | 0.89 m/s, 90° | - | - |
| 1777960623 | 21.11° C | 92% | 1010.8 hPa | 0 mm | 1.34 m/s, 120° | - | - |
| 1777960024 | 21.11° C | 92% | 1010.8 hPa | 0 mm | 0.89 m/s, 110° | - | - |
| 1777959424 | 21.11° C | 92% | 1011 hPa | 0 mm | 1.34 m/s, 110° | - | - |
| 1777958824 | 21.11° C | 92% | 1011.1 hPa | 0 mm | 1.34 m/s, 120° | - | - |
| 1777958223 | 21.11° C | 93% | 1011.1 hPa | 0 mm | 0.89 m/s, 130° | - | - |
| 1777957623 | 21.11° C | 93% | 1011.2 hPa | 0 mm | 1.34 m/s, 140° | - | - |
| 1777957024 | 21.11° C | 93% | 1011.3 hPa | 0 mm | 0.89 m/s, 90° | - | - |
| 1777956424 | 21.11° C | 93% | 1011.4 hPa | 0 mm | 0.89 m/s, 130° | - | - |
| 1777955824 | 21.11° C | 93% | 1011.4 hPa | 0 mm | 0.89 m/s, 100° | - | - |
| 1777955224 | 21.11° C | 93% | 1011.6 hPa | 0 mm | 0.45 m/s, 100° | - | - |
| 1777954623 | 21.11° C | 94% | 1011.5 hPa | 0 mm | 0.89 m/s, 90° | - | - |
| 1777954026 | 21.11° C | 93% | 1011.7 hPa | 0 mm | 0.45 m/s, 80° | - | - |
| 1777953424 | 21.11° C | 92% | 1011.7 hPa | 0 mm | 0.45 m/s, 160° | - | - |
* Rain latest hour (hover to see other rain measurements)
** Current wind speed in m/s (hover to see current wind gust speed)